#timestamp,LO_Frequency,Hit,StdDev 
1620122415.4,286047000.0,P
1620122435.3,286047000.0,N
1620122455.1,286047001.1,N
1620122456.0,286047001.1,N
1620122475.8,286047001.1,N
1620122495.7,286047001.2,N
1620122515.5,286047000.1,N
1620122535.3,286047000.9,N
1620122555.2,286047000.9,N
1620122575.9,286047001.0,N
1620122595.7,286046998.9,N
1620122615.6,286046999.8,N
1620122635.4,286047000.4,N
1620122655.2,286046999.9,N
1620122675.1,286047002.0,N
1620122676.0,286047002.0,N
1620122695.8,286047002.0,N
1620122715.6,286047004.2,Y
1620122735.5,286047002.1,P
1620122755.3,286047001.6,N
1620122775.1,286047001.7,P
1620122795.9,286047005.5,Y
1620122815.7,286047000.9,P
1620122835.5,286047002.3,P
1620122855.4,286047002.3,P
1620122875.2,286047001.6,N
1620122895.0,286047001.4,N
1620122895.9,286047001.4,N
1620122915.8,286047004.4,Y
1620122935.6,286047001.5,P
1620122955.4,286047001.9,P
1620122975.3,286047004.4,P
1620122995.1,286047001.7,N
1620122996.0,286047001.7,N
1620123015.8,286047001.3,N
1620123035.7,286047004.1,Y
1620123055.5,286047002.3,P
1620123075.3,286047000.2,N
1620123095.2,286047002.6,N
1620123115.9,286047003.9,Y
1620123135.7,286047002.6,P
1620123155.6,286047002.4,P
1620123175.4,286047000.3,N
1620123195.2,286047000.1,N
1620123215.1,286046999.8,N
1620123216.0,286046999.8,N
1620123235.8,286047000.5,N
1620123255.6,286047000.6,N
1620123275.5,286047002.0,N
1620123295.3,286047000.3,N
1620123315.1,286047000.1,N
1620123335.9,286046999.9,N
1620123355.7,286047002.0,N
1620123375.5,286047004.4,Y
1620123395.4,286047002.5,P
1620123415.2,286047000.6,N
1620123435.0,286047000.9,N
1620123435.9,286047000.9,N
1620123455.8,286046999.8,N
1620123475.6,286046999.7,N
1620123495.4,286047002.7,Y
1620123515.3,286047000.2,P
1620123535.1,286047000.8,N
1620123536.0,286047000.8,N
1620123555.8,286047000.7,N
1620123575.7,286046998.6,Y
1620123595.5,286047001.2,P
1620123615.3,286046998.1,P
1620123635.2,286047000.5,N
1620123655.9,286047000.1,N
1620123675.7,286047000.2,N
1620123695.6,286047002.8,N
1620123715.4,286047000.4,N
1620123735.2,286046999.9,N
1620123755.1,286047002.3,N
1620123756.0,286047002.3,N
1620123775.8,286047000.1,N
1620123795.6,286047000.6,N
1620123815.5,286047001.2,N
1620123835.3,286047000.7,N
1620123855.1,286047000.6,N
1620123875.9,286047002.8,N
1620123895.7,286047002.2,N
1620123915.5,286047001.4,N
1620123935.4,286047001.8,N
1620123955.2,286047000.1,N
1620123975.0,286047002.6,N
1620123975.9,286047002.6,N
1620123995.7,286047002.1,N
1620124015.6,286047002.3,N
1620124035.4,286047002.0,N
1620124055.2,286047004.0,Y
1620124075.1,286047003.5,P
1620124076.0,286047003.5,P
1620124095.8,286047003.9,P
1620124115.7,286047004.0,Y
1620124135.5,286047000.6,P
1620124155.3,286046998.5,N
1620124175.1,286046998.3,N
1620124195.9,286047001.2,N
1620124215.7,286047000.6,N
1620124235.5,286047000.3,N
1620124255.4,286047002.3,N
1620124275.2,286047002.4,N
1620124295.0,286047002.3,N
1620124295.9,286047002.3,N
1620124315.8,286047000.0,N
1620124335.6,286046999.4,N
1620124355.4,286046998.7,N
1620124375.3,286046999.4,N
1620124395.1,286047001.2,N
1620124415.8,286047000.8,N
1620124435.7,286046998.6,N
1620124455.5,286047001.1,N
1620124475.3,286046998.9,N
1620124495.2,286046999.3,N
1620124515.0,286046999.6,N
1620124515.9,286046999.6,N
1620124535.7,286046996.5,N
1620124555.6,286046997.2,N
1620124575.4,286046997.7,N
1620124595.2,286046999.6,N
1620124615.1,286046999.0,N
1620124616.0,286046999.0,N
1620124635.8,286046999.1,N
1620124655.6,286046998.9,N
1620124675.5,286047000.6,N
1620124695.3,286047003.5,N
1620124715.1,286047001.7,N
1620124735.9,286047002.8,N
1620124755.7,286047002.0,N
1620124775.5,286047001.6,N
1620124795.4,286047003.6,N
1620124815.2,286047003.5,N
1620124835.0,286047002.1,N
1620124835.9,286047002.1,N
1620124855.8,286047002.6,N
1620124875.6,286047001.4,N
1620124895.4,286047004.4,N
1620124915.3,286047002.1,N
1620124935.1,286047002.0,N
1620124955.8,286047001.9,N
1620124975.7,286047002.0,N
1620124995.5,286047001.6,N
1620125015.3,286047000.0,N
1620125035.2,286046998.2,N
1620125055.0,286047001.2,N
1620125055.9,286047001.2,N
1620125075.7,286047001.0,N
1620125095.6,286046998.8,N
1620125115.4,286046998.5,N
1620125135.2,286046999.6,N
1620125155.1,286046997.0,N
1620125156.0,286046997.0,N
1620125175.8,286047011.9,Y
1620125195.6,286046997.4,P
1620125215.5,286046997.7,N
1620125235.3,286046997.1,N
1620125255.1,286046997.3,N
1620125275.9,286046997.8,N
1620125295.7,286046997.0,N
1620125315.5,286046996.8,N
1620125335.4,286046993.3,Y
1620125355.2,286046997.1,P
1620125375.0,286046996.9,P
1620125375.9,286046996.9,P
1620125395.8,286046995.1,Y
1620125415.6,286046996.7,P
1620125435.4,286046997.1,P
1620125455.3,286046996.9,P
1620125475.1,286046995.9,Y
1620125495.8,286046998.5,P
1620125515.7,286046999.2,N
1620125535.5,286046999.6,N
1620125555.3,286046996.5,Y
1620125575.2,286047001.2,P
1620125595.0,286046998.3,N
1620125595.9,286046998.3,N
1620125615.7,286046996.8,N
1620125635.6,286046996.9,N
1620125655.4,286046995.1,Y
1620125675.3,286046998.6,P
1620125695.1,286046996.7,P
1620125696.0,286046996.7,P
1620125715.8,286046998.3,N
1620125735.7,286046996.6,Y
1620125755.5,286046998.5,P
1620125775.3,286046999.6,N
1620125795.2,286046997.4,P
1620125815.9,286046997.5,N
1620125835.7,286046995.0,Y
1620125855.6,286046999.2,P
1620125875.4,286046996.8,P
1620125895.2,286046995.2,P
1620125915.1,286046995.7,N
1620125916.0,286046995.7,N
1620125935.8,286046993.7,Y
1620125955.6,286046998.0,P
1620125975.5,286046995.0,P
1620125995.3,286046995.1,P
